DW2128 Weather Reports


time (UTC)temp
F
wind
direction
speed
knots
gust
knots
rain 1hr
in
rain 24hr
in
rain mn
in
humidity
%
barometer
mb
20260503193339 62 223 2.6 0.0 0.00 0.00 0.00 51 1011.0
20260503192035 62 214 1.7 0.0 0.00 0.00 0.00 52 1011.0
20260503191822 62 217 1.7 0.0 0.00 0.00 0.00 51 1011.1
20260503190537 62 157 0.9 0.0 0.00 0.00 0.00 53 1011.1
20260503190341 62 156 1.7 0.0 0.00 0.00 0.00 53 1011.2
20260503185035 61 233 2.6 0.0 0.00 0.00 0.00 55 1011.2
20260503184826 61 232 2.6 0.0 0.00 0.00 0.00 55 1011.2
20260503183528 60 225 2.6 0.0 0.00 0.00 0.00 57 1011.2
20260503183332 60 225 1.7 0.0 0.00 0.00 0.00 57 1011.4
20260503182031 60 238 1.7 0.0 0.00 0.00 0.00 60 1011.4
20260503181836 60 217 1.7 0.0 0.00 0.00 0.00 60 1011.3
20260503180550 59 225 2.6 0.0 0.00 0.00 0.00 62 1011.3
20260503180337 59 252 2.6 0.0 0.00 0.00 0.00 62 1011.4
20260503175036 58 237 2.6 0.0 0.00 0.00 0.00 66 1011.4
20260503174840 58 225 2.6 0.0 0.00 0.00 0.00 67 1011.5
20260503173534 57 200 3.5 0.0 0.00 0.00 0.00 67 1011.5
20260503173338 57 259 3.5 0.0 0.00 0.00 0.00 67 1011.3
20260503172032 58 232 5.2 0.0 0.00 0.00 0.00 67 1011.3
20260503171840 58 236 4.3 0.0 0.00 0.00 0.00 65 1011.0
20260503170534 59 202 2.6 0.0 0.00 0.00 0.00 64 1011.0
20260503170321 59 241 2.6 0.0 0.00 0.00 0.00 64 1011.0
20260503150526 56 349 0.0 0.0 0.00 0.00 0.00 75 1010.9
20260503150335 56 349 0.0 0.0 0.00 0.00 0.00 75 1010.8
20260503130559 54 348 0.0 0.0 0.00 0.00 0.00 77 1009.4
20260503130328 54 348 0.0 0.0 0.00 0.00 0.00 77 1009.4
20260503110523 55 355 0.0 0.0 0.00 0.00 0.00 72 1009.5
20260503110329 55 355 0.0 0.0 0.00 0.00 0.00 72 1009.5
20260503090335 56 355 0.0 0.0 0.00 0.00 0.00 72 1009.9
20260503080534 56 355 0.0 0.0 0.00 0.00 0.00 72 1010.3
20260503080344 56 355 0.0 0.0 0.00 0.00 0.00 72 1010.4
20260503072024 56 355 0.0 0.0 0.00 0.00 0.00 72 1010.5
20260503071848 56 355 0.0 0.0 0.00 0.00 0.00 72 1010.5
20260503070542 56 355 0.0 0.0 0.00 0.00 0.00 72 1010.5
20260503070346 56 355 0.0 0.0 0.00 0.00 0.00 72 1010.5
20260503060343 56 351 0.9 0.0 0.00 0.00 0.00 70 1010.7
20260503055019 57 299 0.0 0.0 0.00 0.00 0.00 70 1010.7
20260503054825 57 299 0.0 0.0 0.00 0.00 0.00 70 1010.9
20260503053520 57 298 0.0 0.0 0.00 0.00 0.00 70 1010.9
20260503053328 57 298 0.0 0.0 0.00 0.00 0.00 70 1011.0
20260503052042 57 298 0.0 0.0 0.00 0.00 0.00 70 1011.0
20260503051849 57 298 0.0 0.0 0.00 0.00 0.00 70 1011.0
20260503050522 57 298 0.0 0.0 0.00 0.00 0.00 70 1011.0
20260503050328 57 298 0.0 0.0 0.00 0.00 0.00 70 1010.9
20260503045022 57 298 0.0 0.0 0.00 0.00 0.00 69 1010.9
20260503044827 57 298 0.0 0.0 0.00 0.00 0.00 69 1010.8
20260503043527 57 16 0.0 0.0 0.00 0.00 0.00 69 1010.8
20260503043335 57 297 0.0 0.0 0.00 0.00 0.00 69 1010.6
20260503042029 57 297 0.0 0.0 0.00 0.00 0.00 69 1010.6
20260503041834 57 297 0.0 0.0 0.00 0.00 0.00 69 1010.5
20260503040527 57 297 0.0 0.0 0.00 0.00 0.00 69 1010.5
20260503040332 57 297 0.0 0.0 0.00 0.00 0.00 69 1010.4
20260503035029 57 299 0.0 0.0 0.00 0.00 0.00 69 1010.4
20260503034839 58 299 0.0 0.0 0.00 0.00 0.00 69 1010.2
20260503033534 58 13 0.0 0.0 0.00 0.00 0.00 69 1010.2
20260503033339 58 13 0.0 0.0 0.00 0.00 0.00 69 1010.0
20260503032036 58 13 0.9 0.0 0.00 0.00 0.00 69 1010.0
20260503031846 58 14 0.9 0.0 0.00 0.00 0.00 69 1009.9
20260503030520 58 342 0.0 0.0 0.00 0.00 0.00 69 1009.9
20260503030324 58 342 0.0 0.0 0.00 0.00 0.00 69 1009.9
20260503025022 59 11 0.0 0.0 0.00 0.00 0.00 69 1009.9
20260503024827 59 11 0.0 0.0 0.00 0.00 0.00 68 1009.7
20260503023521 59 23 0.9 0.0 0.00 0.00 0.00 68 1009.7
20260503023351 60 23 0.9 0.0 0.00 0.00 0.00 67 1009.5
20260503022028 60 360 0.9 0.0 0.00 0.00 0.00 67 1009.5
20260503021833 60 18 0.9 0.0 0.00 0.00 0.00 66 1009.5
20260503020533 60 312 0.9 0.0 0.00 0.00 0.00 65 1009.5
20260503020339 60 312 0.9 0.0 0.00 0.00 0.00 65 1009.5
20260503015034 61 304 0.0 0.0 0.00 0.00 0.00 64 1009.5
20260503014823 62 317 0.0 0.0 0.00 0.00 0.00 63 1009.5
20260503013538 63 301 0.0 0.0 0.00 0.00 0.00 63 1009.5
20260503013341 63 323 0.0 0.0 0.00 0.00 0.00 62 1009.5
20260503012034 63 294 0.0 0.0 0.00 0.00 0.00 62 1009.5
20260503011822 63 294 0.0 0.0 0.00 0.00 0.00 62 1009.5
20260503010531 63 16 0.9 0.0 0.00 0.00 0.00 62 1009.5
20260503010340 63 16 0.0 0.0 0.00 0.00 0.00 62 1009.4
20260503005035 64 289 0.0 0.0 0.00 0.00 0.00 61 1009.5
20260503004900 64 283 0.0 0.0 0.00 0.00 0.00 59 1009.4
20260503003533 66 15 0.9 0.0 0.00 0.00 0.00 58 1009.4
20260503003358 66 5 0.9 0.0 0.00 0.00 0.00 56 1009.4
20260503002031 69 321 0.9 0.0 0.00 0.00 0.00 53 1009.4
20260503001820 69 40 0.9 0.0 0.00 0.00 0.00 52 1009.5
20260503000558 69 323 0.0 0.0 0.00 0.00 0.00 52 1009.5
20260503000402 69 302 0.0 0.0 0.00 0.00 0.00 52 1009.4
20260502235036 70 316 0.0 0.0 0.00 0.00 0.00 52 1009.4
20260502234839 70 319 0.0 0.0 0.00 0.00 0.00 52 1009.4
20260502233554 69 355 1.7 0.0 0.00 0.00 0.00 52 1009.4
20260502233341 70 28 1.7 0.0 0.00 0.00 0.00 50 1009.4
20260502232035 71 303 0.9 0.0 0.00 0.00 0.00 49 1009.4
20260502231823 71 232 0.9 0.0 0.00 0.00 0.00 50 1009.7
20260502230537 71 22 1.7 0.0 0.00 0.00 0.00 49 1009.7
20260502230322 72 298 0.9 0.0 0.00 0.00 0.00 48 1009.8
20260502225037 71 303 0.9 0.0 0.00 0.00 0.00 49 1009.7
20260502224825 72 267 0.9 0.0 0.00 0.00 0.00 50 1009.9
20260502223521 72 288 0.9 0.0 0.00 0.00 0.00 47 1009.9
20260502223346 73 5 0.9 0.0 0.00 0.00 0.00 50 1010.0
20260502222020 73 22 0.9 0.0 0.00 0.00 0.00 47 1010.0
20260502221828 73 325 0.0 0.0 0.00 0.00 0.00 47 1010.4
20260502220559 73 290 0.0 0.0 0.00 0.00 0.00 48 1010.4
20260502220326 73 282 0.9 0.0 0.00 0.00 0.00 47 1010.4
20260502215020 73 5 0.9 0.0 0.00 0.00 0.00 48 1010.4
20260502214844 73 150 0.0 0.0 0.00 0.00 0.00 48 1010.5
20260502213524 71 38 0.9 0.0 0.00 0.00 0.00 49 1010.5
20260502213334 71 38 0.9 0.0 0.00 0.00 0.00 48 1010.5
20260502212044 71 26 1.7 0.0 0.00 0.00 0.00 50 1010.5
20260502211832 70 26 1.7 0.0 0.00 0.00 0.00 50 1010.9
20260502210528 69 5 0.0 0.0 0.00 0.00 0.00 54 1010.8
20260502210332 69 5 0.9 0.0 0.00 0.00 0.00 52 1011.0
20260502205026 69 5 0.9 0.0 0.00 0.00 0.00 53 1011.0
20260502204834 70 5 0.9 0.0 0.00 0.00 0.00 51 1011.1
20260502203529 69 5 0.9 0.0 0.00 0.00 0.00 54 1011.1
20260502203353 69 5 0.9 0.0 0.00 0.00 0.00 52 1011.4
20260502202032 69 65 0.0 0.0 0.00 0.00 0.00 54 1011.4
20260502201816 68 109 0.0 0.0 0.00 0.00 0.00 53 1011.5
20260502200556 67 110 0.9 0.0 0.00 0.00 0.00 56 1011.5
20260502200325 67 240 0.9 0.0 0.00 0.00 0.00 57 1011.7
20260502195039 66 219 0.9 0.0 0.00 0.00 0.00 60 1011.7
20260502194824 65 219 0.9 0.0 0.00 0.00 0.00 59 1011.9
20260502193538 66 136 0.9 0.0 0.00 0.00 0.00 58 1011.9